Location: Calgary
(51.0833°N, 114.0833°W)
Time: 11:24:13
(UTC-07:00)

Envisat - Visible Passes

Search period start: 22 November 2017 00:00
Search period end: 02 December 2017 00:00
Orbit: 764 x 766 km, 98.2° (Epoch: 22 November)

Date Brightness Start Highest point End Pass type
(mag) Time Alt. Az. Time Alt. Az. Time Alt. Az.
22 Nov 4.9 18:19:45 13° NNE 18:19:45 13° NNE 18:20:47 10° NNE visible
22 Nov 5.0 19:59:57 19° N 19:59:57 19° N 20:01:22 10° N visible
23 Nov 4.8 19:22:54 19° N 19:22:54 19° N 19:24:24 10° N visible
23 Nov 5.8 21:03:06 12° NNW 21:03:06 12° NNW 21:03:28 10° NNW visible
24 Nov 4.8 18:45:49 15° NNE 18:45:49 15° NNE 18:47:08 10° N visible
24 Nov 5.3 20:26:02 16° NNW 20:26:02 16° NNW 20:26:59 10° NNW visible
25 Nov 5.0 18:08:45 11° NNE 18:08:45 11° NNE 18:09:08 10° NNE visible
25 Nov 5.0 19:48:57 18° N 19:48:57 18° N 19:50:13 10° N visible
26 Nov 4.9 19:11:53 17° N 19:11:53 17° N 19:13:09 10° N visible
26 Nov 5.7 20:52:05 12° NNW 20:52:05 12° NNW 20:52:27 10° NNW visible
27 Nov 4.9 18:34:48 13° NNE 18:34:48 13° NNE 18:35:45 10° NNE visible
27 Nov 5.3 20:15:00 15° NNW 20:15:00 15° NNW 20:15:53 10° NNW visible
28 Nov 5.0 19:37:55 16° N 19:37:55 16° N 19:39:01 10° N visible
29 Nov 6.1 07:35:10 10° ENE 07:36:45 11° E 07:38:20 10° ESE visible
29 Nov 4.9 19:00:49 15° NNE 19:00:49 15° NNE 19:01:54 10° N visible
29 Nov 5.6 20:41:02 12° NNW 20:41:02 12° NNW 20:41:25 10° NNW visible
30 Nov 5.0 18:23:44 12° NNE 18:23:44 12° NNE 18:24:18 10° NNE visible
30 Nov 5.3 20:03:56 15° NNW 20:03:56 15° NNW 20:04:45 10° NNW visible
01 Dec 5.0 19:26:50 15° N 19:26:50 15° N 19:27:49 10° N visible
